Location: Ostrava
(49.8330°N, 18.2830°E)
Time: 04:34:50
(UTC+02:00)

Cosmos 2219 Rocket - Visible Passes

Search period start: 24 August 2016 00:00
Search period end: 03 September 2016 00:00
Orbit: 828 x 847 km, 71.0° (Epoch: 23 August)

Date Brightness Start Highest point End Pass type
(mag) Time Alt. Az. Time Alt. Az. Time Alt. Az.
24 Aug 3.9 00:25:03 20° E 00:25:03 20° E 00:27:52 10° NE visible
24 Aug 2.1 02:06:46 69° W 02:07:05 71° WNW 02:12:45 10° NNE visible
24 Aug 4.1 03:48:29 11° WNW 03:52:07 19° NW 03:56:03 10° N visible
25 Aug 4.1 00:09:03 18° ENE 00:09:03 18° ENE 00:11:25 10° NE visible
25 Aug 2.1 01:50:45 76° WNW 01:50:45 76° WNW 01:56:25 10° NNE visible
25 Aug 4.1 03:32:28 13° WNW 03:35:42 20° NW 03:39:45 10° N visible
25 Aug 4.2 23:53:01 16° ENE 23:53:01 16° ENE 23:54:56 10° ENE visible
26 Aug 2.2 01:34:44 77° NNW 01:34:44 77° NNW 01:40:04 10° NNE visible
26 Aug 4.0 03:16:27 15° WNW 03:19:17 21° NW 03:23:28 10° N visible
26 Aug 4.3 23:36:59 14° ENE 23:36:59 14° ENE 23:38:26 10° ENE visible
27 Aug 2.3 01:18:42 71° NNE 01:18:42 71° NNE 01:23:44 10° NNE visible
27 Aug 4.0 03:00:24 16° WNW 03:02:53 22° NW 03:07:10 10° N visible
27 Aug 4.3 23:20:55 13° ENE 23:20:55 13° ENE 23:21:55 10° ENE visible
28 Aug 2.4 01:02:38 65° NNE 01:02:38 65° NNE 01:07:24 10° NNE visible
28 Aug 3.9 02:44:21 18° WNW 02:46:28 23° NW 02:50:52 10° NNE visible
28 Aug 4.4 23:04:50 11° ENE 23:04:50 11° ENE 23:05:22 10° ENE visible
29 Aug 2.6 00:46:32 58° NE 00:46:32 58° NE 00:51:03 10° NNE visible
29 Aug 3.9 02:28:15 20° WNW 02:30:04 24° NW 02:34:33 10° NNE visible
29 Aug 4.5 22:48:43 10° ENE 22:48:43 10° ENE 22:48:47 10° ENE visible
30 Aug 2.7 00:30:25 53° NE 00:30:25 53° NE 00:34:42 10° NNE visible
30 Aug 3.8 02:12:08 22° WNW 02:13:40 25° NW 02:18:16 10° NNE visible
31 Aug 2.8 00:14:17 48° NE 00:14:17 48° NE 00:18:21 10° NNE visible
31 Aug 3.8 01:55:59 24° WNW 01:57:16 26° NW 02:01:57 10° NNE visible
31 Aug 3.0 23:58:07 44° NE 23:58:07 44° NE 00:02:00 10° NNE visible
01 Sep 3.7 01:39:49 26° WNW 01:40:52 27° NW 01:45:39 10° NNE visible
01 Sep 4.9 03:26:38 10° NNW 03:26:58 10° NNW 03:27:19 10° NNW visible
01 Sep 3.0 23:41:56 41° NE 23:41:56 41° NE 23:45:38 10° NNE visible
02 Sep 3.7 01:23:38 27° WNW 01:24:28 28° NW 01:29:20 10° NNE visible
02 Sep 4.9 03:09:35 10° NNW 03:10:31 10° NNW 03:11:27 10° N visible
02 Sep 3.1 23:25:42 38° NE 23:25:42 38° NE 23:29:17 10° NE visible
